Torna al catalogo

COSMOS 2566

AttivoNavigazioneLEO
NORAD 54383·PAYLOAD·🇷🇺 Russia

Lanciato Nov 30, 2022 da Plesetsk Cosmodrome

Loading…

Prossimi Passaggi (prossime 24 ore)

TLE

AggiornatoSource: Space-Track

Epoca: Sep 14, 2026, 05:53 UTC

1 54383U 22163C   26257.24539101 -.00000018  00000-0  40916-4 0  9998
2 54383  67.1410 245.2152 0009020 329.0407  31.0145 13.97721990193017

Traccia COSMOS 2566 in tempo reale con AllMySat

Download on the App Store